Regional Weather Roundup
Issued by NWS

Home | Current Version | Previous Version | Text Only | Print | Product List | Glossary Off
Versions: 1 2 3 4 5 6 7 8 9 10 11 12 13 14 15 16 17 18 19 20 21 22 23 24 25 26 27 28 29 30 31 32 33 34 35 36 37 38 39 40 41 42 43 44 45 46 47 48 49 50

740
ASUS43 KDTX 311101
RWRMI
MICHIGAN HOURLY REGIONAL WEATHER ROUNDUP
NATIONAL WEATHER SERVICE DETROIT/PONTIAC MI
700 AM EDT TUE MAY 31 2016

NOTE: "FAIR" INDICATES FEW OR NO CLOUDS BELOW 12,000 FEET WITH NO
SIGNIFICANT WEATHER AND/OR OBSTRUCTION TO VISIBILITY.

MIZ047>049-052>055-059>063-066>070-074>076-081>083-311200-
SOUTHEAST LOWER MICHIGAN

CITY           SKY/WX    TMP DP  RH WIND       PRES   REMARKS
ADRIAN         CLEAR     60  52  74 N3        30.03R
ALMA           CLEAR     49  49  99 CALM      30.06R
ANN ARBOR      CLEAR     54  51  90 CALM      30.02R
BAD AXE        CLEAR     50  50 100 CALM      30.05R
CARO           CLEAR     50  49  96 CALM      30.03R
DETROIT CITY   CLEAR     64  53  67 N3        30.02R
DETROIT        MOCLDY    64  52  64 N5        30.02R
FLINT          CLEAR     56  51  84 W3        30.04R
GROSSE ILE     CLEAR     64  55  72 N5        30.00R
HILLSDALE      CLEAR     56  51  83 CALM      30.04R
HOWELL         CLEAR     53  51  91 CALM      30.04R

CITY           SKY/WX    TMP DP  RH WIND       PRES   REMARKS
JACKSON        CLEAR     55  53  93 CALM      30.04R
LAMBERTVILLE   CLEAR     58  54  87 CALM      30.01R
LANSING        CLEAR     54  53  97 CALM      30.05R
LAPEER         FAIR      53  52  96 CALM      30.04S
MASON          CLEAR     54  52  94 N7        30.04R
MONROE         PTCLDY    60  54  79 W6        30.00R
MT. CLEMENS    CLEAR     60  55  85 N6        30.01R
PONTIAC        PTCLDY    59  53  80 CALM      30.03R
PORT HOPE        N/A     61  56  83 NW5       30.03R
PORT HURON     CLEAR     55  55 100 CALM      30.03R
TRI CITIES     CLEAR     60  51  72 N6        30.04R
MIDLAND        FAIR      50  50  99 CALM      30.04R
TROY           CLEAR     65  52  62 CALM      30.04R
SAGINAW HB     CLEAR     55  50  82 CALM      30.04R
$$
MIZ043>046-050>051-056>058-064>065-071>073-077>080-311200-
SOUTHWEST LOWER MICHIGAN

CITY           SKY/WX    TMP DP  RH WIND       PRES   REMARKS
BATTLE CREEK   CLOUDY    56  53  90 CALM      30.04R
BENTON HARBOR  PTCLDY    58  54  86 E3        30.01R
BIG RAPIDS     CLEAR     52  51  97 CALM      30.05R
COLDWATER      CLEAR     56  55  95 CALM      30.03R
FREMONT        FAIR      54  54 100 N5        30.03R
HOLLAND        CLEAR     56  54  93 CALM      30.03R FOG
GRAND RAPIDS   PTCLDY    57  53  86 SE3       30.03R
IONIA          FAIR      53  51  95 CALM      30.04R
KALAMAZOO      CLOUDY    58  54  86 CALM      30.04R
LUDINGTON      CLEAR     50  50 100 CALM      30.04S FOG
MARSHALL       CLEAR     55  54  97 CALM      30.04R
MOUNT PLEASANT CLEAR     51  50  97 CALM      30.04R
MUSKEGON       PTCLDY    55  51  86 CALM      30.03R
SOUTH HAVEN    CLEAR     56  55  97 CALM      30.02R
$$
MIZ016>042-311200-
NORTHERN LOWER MICHIGAN

CITY           SKY/WX    TMP DP  RH WIND       PRES   REMARKS
ALPENA         SUNNY     53  49  86 NW9       30.05R
BEAVER ISLAND  PTCLDY    47  43  85 NE5       30.09R
BELLAIRE       MOCLDY    50  49  96 CALM      30.07R
CADILLAC       CLEAR     47  45  93 CALM      30.06R
CHARLEVOIX     CLOUDY    52  48  87 N7        30.10S
FRANKFORT      CLEAR     56  51  84 E5        30.05R
GAYLORD        CLOUDY    52  48  86 CALM      30.06R
GRAYLING       CLOUDY    47  45  94 CALM      30.07R
HARBOR SPRINGS PTCLDY    50  47  89 CALM      30.07S
HOUGHTON LAKE  PTCLDY    49  48  97 CALM      30.07R
OSCODA         CLEAR     55  50  85 CALM      30.04R
PELLSTON       CLOUDY    49  46  90 W3        30.08R
ROGERS CITY    CLEAR     51  47  86 NW6       30.07S
TRAVERSE CITY  CLOUDY    52  50  93 CALM      30.05R
$$
MIZ007>008-015-311200-
EASTERN UPPER MICHIGAN

CITY           SKY/WX    TMP DP  RH WIND       PRES   REMARKS
KINROSS          N/A     46  46 100 N6        30.08R
MACKINAC ISLAN PTCLDY    47  46  99 NW5       30.08R
NEWBERRY       CLEAR     43  40  90 N6        30.09R
S. S. MARIE    SUNNY     49  39  68 NE8       30.08R
MUNISING         N/A     46  42  86 N6        30.11R
$$
MIZ004>006-011>014-085-311200-
CENTRAL UPPER MICHIGAN

CITY           SKY/WX    TMP DP  RH WIND       PRES   REMARKS
MANISTIQUE     PTCLDY    44  41  91 N8        30.10R
ESCANABA       CLOUDY    46  41  81 N5        30.11R
MENOMINEE      CLOUDY    50  45  81 NE7       30.10R
$$
MIZ001>003-009>011-084-311200-
WESTERN UPPER MICHIGAN

CITY           SKY/WX    TMP DP  RH WIND       PRES   REMARKS
IRON MOUNTAIN  CLOUDY    47  42  83 CALM      30.10R
HOUGHTON       CLOUDY    44  39  82 E13G18    30.11R
COPPER HARBOR    N/A     44  39  82 VRB5      30.14R
IRONWOOD       CLOUDY    52  46  82 E13       30.00F
$$

ABBREVIATIONS USED IN REMARKS
   TC - TEMPERATURE IN CELSIUS
  WCI - WIND CHILL INDEX
   HX - HEAT INDEX
  VSB - VISIBILITY





USA.gov is the U.S. government's official web portal to all federal, state and local government web resources and services.